Location: Weatherford
(35.5260°N, 98.7070°W)
Time: 19:37:24
(UTC-06:00)

OPAL - Visible Passes

Search period start: 06 March 2015 00:00
Search period end: 16 March 2015 01:00
Orbit: 743 x 796 km, 100.2° (Epoch: 05 March)

Date Brightness Start Highest point End Pass type
(mag) Time Alt. Az. Time Alt. Az. Time Alt. Az.
06 Mar 10.2 05:39:02 10° ESE 05:42:36 20° ENE 05:46:19 10° NNE visible
06 Mar 7.4 19:28:55 10° NNE 19:33:50 62° ESE 19:38:44 10° S visible
06 Mar 10.4 21:09:43 10° NNW 21:12:17 14° WNW 21:14:36 10° W visible
07 Mar 8.4 18:54:16 10° NE 18:58:21 26° E 19:02:29 10° SSE visible
07 Mar 9.3 20:32:55 10° N 20:37:15 30° WNW 20:41:30 10° SW visible
08 Mar 9.3 07:06:06 10° SE 07:10:41 35° ENE 07:15:18 10° N visible
08 Mar 7.7 20:57:08 10° N 21:02:05 70° WNW 21:07:00 10° SSW visible
09 Mar 10.4 06:32:40 10° E 06:35:38 16° ENE 06:38:47 10° NNE visible
09 Mar 7.6 20:21:56 10° NNE 20:26:45 49° ESE 20:31:32 10° S visible
09 Mar 10.2 22:02:04 10° NNW 22:05:18 17° WNW 22:08:20 10° WSW visible
10 Mar 8.9 21:25:40 10° N 21:30:13 37° WNW 21:34:45 10° SW visible
11 Mar 9.7 06:59:25 10° SE 07:03:41 28° ENE 07:08:01 10° N visible
11 Mar 7.4 20:50:02 10° NNE 20:55:00 88° WNW 20:59:59 10° SSW visible
12 Mar 10.6 06:26:32 10° E 06:28:40 13° ENE 06:31:03 10° NE visible
12 Mar 7.9 20:15:01 10° NNE 20:19:37 39° E 20:24:16 10° S visible
12 Mar 9.9 21:54:35 10° NNW 21:58:18 21° WNW 22:01:53 10° WSW visible
13 Mar 8.5 21:18:27 10° N 21:23:11 46° WNW 21:27:55 10° SW visible
14 Mar 10.1 06:52:48 10° ESE 06:56:41 23° ENE 07:00:40 10° NNE visible
14 Mar 7.3 20:42:58 10° NNE 20:47:56 75° ESE 20:52:55 10° S visible
14 Mar 10.6 22:24:33 10° NW 22:26:18 11° WNW 22:27:46 10° W visible
15 Mar 10.9 06:21:10 10° ENE 06:21:42 10° ENE 06:22:34 10° NE visible
15 Mar 8.2 20:08:08 10° NE 20:12:30 31° E 20:16:56 10° SSE visible
15 Mar 9.6 21:47:12 10° NNW 21:51:17 26° WNW 21:55:18 10° WSW visible
